[[{"header":{"parameterUnit":"m.s-1","parameterCategory":1,"la1":30.2991,"la2":30.254,"lo1":-89.0895,"lo2":-89.0444,"dy":0.0017,"dx":0.0017,"nx":28,"ny":28,"refTime":"2025-04-07T09:00:00:Z","depth":0,"parameterNumber":2,"parameterNumberName":"U-component_of_WINDS"},"data":[0,0,0,0,0,0,0,0,0,0,0,0,0,0,0,0,0,0,0,0,0,0,0,0,0,0,0,0,0,0,0,0,0,0,0,0,0,0,0,0,0,0,0,0,0,0,0,0,0,0,0,0,0,0,0,0,0,0,2.1702,2.1702,0,2.1774,2.1775,2.1776,2.1789,2.1789,2.1788,2.1788,2.1863,2.1865,2.1868,0,0,0,0,0,0,0,0,0,0,0,0,0,2.1576,2.1578,2.1701,2.1702,2.1703,2.1774,2.1775,2.1776,2.1789,2.1789,2.1788,2.1787,2.1862,2.1865,2.1868,0,0,0,0,0,0,0,0,0,0,0,0,0,2.1638,2.1579,2.1701,2.1718,2.1721,2.1774,2.1775,2.1776,2.179,2.1789,2.1788,2.1787,2.1861,2.1865,2.1869,2.191,0,0,2.188,2.1882,0,0,0,0,0,0,0,0,2.1634,2.1643,2.1715,2.1717,2.172,2.1772,2.1759,2.1821,2.179,2.1763,2.1788,2.1787,2.1833,2.1839,2.1855,2.1914,2.1917,2.1881,2.1883,2.1885,2.1886,0,0,0,0,0,0,0,2.163,2.164,2.173,2.1716,2.1719,2.1723,2.1731,2.1771,2.1803,2.1766,2.1767,2.1775,2.1835,2.1851,2.1857,2.1918,2.1881,2.1884,2.1886,2.1888,2.2017,2.2018,0,0,0,0,0,0,2.1623,2.1636,2.1728,2.1733,2.1674,2.1726,2.1735,2.1756,2.1802,2.1808,2.1776,2.1776,2.1845,2.1852,2.186,2.1913,2.1885,2.1888,2.189,2.2016,2.2017,2.2018,0,0,0,0,0,0,2.162,2.1631,2.1725,2.1685,2.1697,2.1729,2.1753,2.1758,2.1775,2.181,2.1816,2.1787,2.1845,2.1854,2.1898,2.1916,2.189,2.1893,2.2015,2.2016,2.2018,2.2018,0,0,0,0,0,0,2.1616,2.163,2.1645,2.1685,2.1699,2.1761,2.1754,2.176,2.1781,2.1782,2.1822,2.1828,2.1845,2.1892,2.1902,2.192,2.1896,2.2013,2.2015,2.2017,2.2017,2.202,2.2022,0,0,0,0,0,2.1612,2.1642,2.1646,2.1657,2.1719,2.1762,2.1771,2.1789,2.1783,2.1799,2.1822,2.1826,2.1912,2.1897,2.1908,2.1927,2.2012,2.2015,2.2017,2.2016,2.2019,2.2022,0,0,0,0,0,0,2.1603,2.1647,2.1652,2.1696,2.1725,2.1765,2.1786,2.1792,2.1824,2.1823,2.1846,2.1855,2.1898,2.1917,2.1899,2.1971,2.1962,2.1967,2.1957,2.1961,2.1963,2.1958,2.19,0,0,0,0,0,2.1607,2.1638,2.1675,2.171,2.1725,2.1753,2.1772,2.1784,2.1816,2.1828,2.1854,2.1885,2.1919,2.1941,2.1974,2.202,2.203,2.2039,2.2042,2.2044,2.2048,2.2076,2.2081,2.2027,2.2027,2.2027,0,0,2.1613,2.1642,2.166,2.1709,2.1733,2.1766,2.1763,2.1797,2.1822,2.1834,2.1877,2.1897,2.1933,2.1979,2.2,2.1996,2.2065,2.2047,2.2049,2.2052,2.2079,2.2084,2.2088,2.2029,2.2028,2.2028,0,0,2.1643,2.1667,2.17,2.1724,2.1761,2.178,2.1788,2.1827,2.1841,2.1884,2.1895,2.1925,2.1982,2.2008,2.2029,2.207,2.2076,2.2081,2.2095,2.2121,2.2126,2.213,2.2145,2.2151,2.2085,2.2085,2.2085,0,2.1647,2.1696,2.1716,2.175,2.1772,2.1785,2.1819,2.1842,2.1888,2.1903,2.1898,2.1973,2.1997,2.205,2.206,2.2076,2.2087,2.2076,2.2123,2.2127,2.2131,2.2147,2.2153,2.2085,2.2085,2.2085,2.2085,0,2.17,2.1734,2.1756,2.18,2.1825,2.1859,2.1885,2.1908,2.1919,2.1938,2.1984,2.2014,2.2055,2.2068,2.2078,2.2123,2.212,2.2119,2.211,2.2137,2.2152,2.2158,2.2085,2.2085,2.2085,2.2085,0,0,2.1725,2.1781,2.1789,2.181,2.1853,2.188,2.1915,2.1955,2.1974,2.2006,2.2037,2.2087,2.2087,2.2111,2.2124,2.2148,2.218,2.2144,2.2146,2.2151,2.2233,2.2233,2.224,2.2185,2.2186,2.2187,2.223,0,2.176,2.1823,2.1843,2.1896,2.1928,2.1942,2.1973,2.2003,2.2023,2.2054,2.2076,2.2112,2.2109,2.2123,2.2147,2.2171,2.2197,2.2168,2.2215,2.2216,2.2205,2.2247,2.2248,2.2287,2.2236,2.2237,2.2238,0,2.1809,2.1842,2.1898,2.1939,2.1953,2.1981,2.202,2.2049,2.2084,2.2097,2.2124,2.2137,2.2175,2.2164,2.2219,2.2199,2.2219,2.2234,2.2237,2.2242,2.2228,2.2254,2.2299,2.2305,2.2247,2.2246,2.2245,0,2.1823,2.1881,2.1923,2.1941,2.1988,2.2008,2.2029,2.2063,2.2086,2.212,2.2136,2.2174,2.2195,2.2225,2.2248,2.2238,2.2302,2.2292,2.2314,2.2314,2.2327,2.2326,2.2376,2.2339,2.2339,2.2339,2.2339,0,2.186,2.1894,2.193,2.1956,2.1995,2.2018,2.2057,2.2079,2.2109,2.214,2.2155,2.2184,2.2212,2.2245,2.2263,2.2306,2.2316,2.2328,2.2333,2.2327,2.2325,2.2341,2.2339,2.2341,2.234,2.234,2.234,0,2.1882,2.1907,2.1954,2.1995,2.2007,2.2034,2.207,2.2097,2.2118,2.2157,2.2167,2.2201,2.2241,2.2266,2.2317,2.233,2.2377,2.2381,2.2365,2.2367,2.2388,2.2386,2.2451,2.2461,2.2417,2.2417,2.2417,0,2.1904,2.1931,2.1976,2.1998,2.2019,2.2053,2.2077,2.2102,2.2127,2.217,2.2191,2.2232,2.2266,2.2329,2.2358,2.2398,2.2403,2.2423,2.2409,2.2403,2.2404,2.2402,2.2406,2.2425,2.2425,2.2426,2.2426,0,2.1941,2.1953,2.1987,2.2026,2.2054,2.2086,2.2118,2.2135,2.2165,2.2192,2.2233,2.226,2.2312,2.2353,2.2396,2.2418,2.2428,2.243,2.2438,2.2432,2.2422,2.2429,2.2372,2.2428,2.2428,2.2428,2.2428,2.2428,2.1964,2.1989,2.2025,2.2063,2.209,2.212,2.2147,2.2172,2.2207,2.2251,2.2264,2.2307,2.2343,2.2401,2.2425,2.246,2.2458,2.2468,2.2471,2.2473,2.2474,2.2417,2.2468,2.2468,2.2468,2.2467,2.2467,0,2.2003,2.2027,2.2062,2.2106,2.2137,2.2143,2.2179,2.2204,2.2242,2.2275,2.2309,2.2357,2.2397,2.243,2.2472,2.2493,2.2499,2.2504,2.2502,2.2508,2.2473,2.2463,2.2499,2.2499,2.2499,2.2499,2.2499,2.2499,2.2027,2.207,2.2086,2.2143,2.2168,2.221,2.223,2.2258,2.2285,2.2338,2.2372,2.2393,2.2427,2.2471,2.2509,2.2518,2.2533,2.2537,2.2547,2.2513,2.251,2.2507,2.2497,2.254,2.254,2.2579,2.2579,2.2579]},{"header":{"parameterUnit":"m.s-1","parameterCategory":1,"la1":30.2991,"la2":30.254,"lo1":-89.0895,"lo2":-89.0444,"dy":0.0017,"dx":0.0017,"nx":28,"ny":28,"refTime":"2025-04-07T09:00:00:Z","depth":0,"parameterNumber":3,"parameterNumberName":"V-component_of_WINDS"},"data":[0,0,0,0,0,0,0,0,0,0,0,0,0,0,0,0,0,0,0,0,0,0,0,0,0,0,0,0,0,0,0,0,0,0,0,0,0,0,0,0,0,0,0,0,0,0,0,0,0,0,0,0,0,0,0,0,0,0,-3.6888,-3.6889,0,-3.6981,-3.6982,-3.6983,-3.7053,-3.7054,-3.7054,-3.7055,-3.7146,-3.7148,-3.7149,0,0,0,0,0,0,0,0,0,0,0,0,0,-3.6772,-3.6773,-3.6888,-3.6889,-3.6891,-3.698,-3.6982,-3.6983,-3.7053,-3.7054,-3.7055,-3.7055,-3.7145,-3.7147,-3.715,0,0,0,0,0,0,0,0,0,0,0,0,0,-3.6839,-3.6774,-3.6888,-3.6936,-3.6942,-3.698,-3.6982,-3.6983,-3.7053,-3.7054,-3.7055,-3.7056,-3.7145,-3.7147,-3.715,-3.7147,0,0,-3.7158,-3.7159,0,0,0,0,0,0,0,0,-3.6835,-3.6843,-3.6928,-3.6933,-3.6939,-3.7006,-3.6974,-3.7038,-3.7053,-3.701,-3.7055,-3.7056,-3.7098,-3.7105,-3.712,-3.7151,-3.7155,-3.7158,-3.716,-3.7161,-3.7162,0,0,0,0,0,0,0,-3.683,-3.6839,-3.6925,-3.6929,-3.6936,-3.6953,-3.6964,-3.6986,-3.7048,-3.7014,-3.702,-3.703,-3.7102,-3.7117,-3.7123,-3.7156,-3.7158,-3.7161,-3.7162,-3.7164,-3.7191,-3.719,0,0,0,0,0,0,-3.6818,-3.6835,-3.6922,-3.6928,-3.6889,-3.6954,-3.6966,-3.6984,-3.7048,-3.7058,-3.7029,-3.7033,-3.7112,-3.7119,-3.7126,-3.7128,-3.7161,-3.7164,-3.7165,-3.7192,-3.7191,-3.719,0,0,0,0,0,0,-3.6815,-3.6825,-3.6918,-3.6883,-3.6896,-3.6955,-3.6974,-3.6985,-3.7001,-3.7059,-3.707,-3.7034,-3.7113,-3.7122,-3.7142,-3.7132,-3.7165,-3.7167,-3.7193,-3.7192,-3.719,-3.7129,0,0,0,0,0,0,-3.6812,-3.6824,-3.6823,-3.6882,-3.6898,-3.6932,-3.6974,-3.6986,-3.7006,-3.7012,-3.7066,-3.7076,-3.7115,-3.7137,-3.7144,-3.7136,-3.717,-3.7194,-3.7192,-3.7191,-3.7132,-3.7126,-3.712,0,0,0,0,0,-3.6807,-3.6801,-3.6823,-3.6833,-3.6898,-3.6931,-3.694,-3.6986,-3.7005,-3.7004,-3.7042,-3.7074,-3.7132,-3.7139,-3.7147,-3.7139,-3.7195,-3.7193,-3.7191,-3.7135,-3.7127,-3.7121,0,0,0,0,0,0,-3.6737,-3.681,-3.6834,-3.6847,-3.6883,-3.6943,-3.6944,-3.6976,-3.7006,-3.701,-3.7065,-3.7076,-3.709,-3.7117,-3.7123,-3.7141,-3.7168,-3.7167,-3.7122,-3.7115,-3.7109,-3.7102,-3.7172,0,0,0,0,0,-3.6724,-3.6745,-3.6807,-3.6813,-3.683,-3.6884,-3.69,-3.6933,-3.6971,-3.6986,-3.7025,-3.706,-3.7087,-3.7103,-3.713,-3.7137,-3.715,-3.7136,-3.713,-3.7125,-3.7124,-3.7131,-3.7125,-3.7183,-3.7183,-3.7184,0,0,-3.6695,-3.6737,-3.6747,-3.68,-3.6831,-3.6852,-3.6896,-3.6916,-3.6932,-3.6989,-3.701,-3.704,-3.7083,-3.7097,-3.7105,-3.712,-3.7111,-3.7123,-3.7118,-3.712,-3.7128,-3.7123,-3.7118,-3.7182,-3.7182,-3.7183,0,0,-3.6653,-3.6688,-3.6697,-3.6728,-3.6776,-3.6813,-3.6815,-3.6871,-3.6894,-3.6917,-3.696,-3.698,-3.7024,-3.7054,-3.7074,-3.7047,-3.7078,-3.7055,-3.7023,-3.7029,-3.7025,-3.7021,-3.7011,-3.7007,-3.7054,-3.7053,-3.7053,0,-3.6611,-3.6645,-3.6697,-3.6715,-3.6737,-3.6792,-3.6801,-3.6829,-3.6883,-3.6896,-3.6913,-3.6971,-3.7004,-3.7026,-3.702,-3.7035,-3.7039,-3.7048,-3.7021,-3.7018,-3.7015,-3.7007,-3.7003,-3.705,-3.7051,-3.7051,-3.7051,0,-3.6591,-3.6614,-3.6616,-3.6668,-3.6691,-3.6704,-3.6758,-3.6774,-3.6806,-3.6841,-3.6864,-3.6906,-3.6943,-3.6951,-3.6981,-3.6978,-3.6986,-3.7011,-3.7039,-3.7006,-3.6998,-3.6996,-3.7046,-3.7047,-3.7048,-3.7049,0,0,-3.6505,-3.6589,-3.6588,-3.6613,-3.6672,-3.669,-3.6707,-3.6746,-3.6759,-3.6795,-3.681,-3.6848,-3.6872,-3.6896,-3.693,-3.6936,-3.6912,-3.6961,-3.6962,-3.695,-3.6912,-3.6892,-3.6887,-3.6934,-3.6934,-3.6933,-3.6908,0,-3.6472,-3.6506,-3.6554,-3.6571,-3.6594,-3.6648,-3.6663,-3.67,-3.6734,-3.6758,-3.6795,-3.6821,-3.6851,-3.6866,-3.6874,-3.6913,-3.6905,-3.6916,-3.6948,-3.6948,-3.6934,-3.6883,-3.6862,-3.6835,-3.6906,-3.6905,-3.6905,0,-3.6437,-3.6472,-3.6492,-3.6551,-3.6562,-3.6575,-3.6615,-3.6637,-3.6681,-3.6706,-3.6733,-3.6771,-3.6792,-3.6819,-3.6848,-3.6854,-3.6871,-3.6892,-3.6892,-3.6896,-3.6923,-3.6885,-3.6828,-3.6824,-3.6901,-3.6901,-3.6902,0,-3.6372,-3.6424,-3.6444,-3.6464,-3.6533,-3.654,-3.6569,-3.6615,-3.6635,-3.667,-3.6685,-3.6721,-3.6741,-3.6768,-3.6815,-3.683,-3.6839,-3.687,-3.686,-3.6858,-3.6857,-3.6856,-3.6802,-3.687,-3.687,-3.687,-3.687,0,-3.6329,-3.6339,-3.6416,-3.6427,-3.6441,-3.6497,-3.6508,-3.6542,-3.6582,-3.6601,-3.6651,-3.6667,-3.6729,-3.6753,-3.679,-3.6809,-3.6818,-3.6838,-3.6847,-3.6833,-3.683,-3.6843,-3.6845,-3.6869,-3.6869,-3.6869,-3.6869,0,-3.6257,-3.6309,-3.6334,-3.6398,-3.6415,-3.6422,-3.6477,-3.649,-3.6529,-3.6552,-3.6561,-3.662,-3.6652,-3.6702,-3.6747,-3.6773,-3.6784,-3.6801,-3.677,-3.6775,-3.6762,-3.6762,-3.6713,-3.6709,-3.678,-3.6779,-3.6778,0,-3.6226,-3.6236,-3.6302,-3.6319,-3.6347,-3.6374,-3.6396,-3.6452,-3.6473,-3.6526,-3.6533,-3.6569,-3.66,-3.6647,-3.6694,-3.6729,-3.6747,-3.6727,-3.6752,-3.6738,-3.6746,-3.6744,-3.6745,-3.672,-3.6719,-3.6718,-3.6718,0,-3.6165,-3.6191,-3.6221,-3.6262,-3.6287,-3.6321,-3.6358,-3.6369,-3.6433,-3.6455,-3.6488,-3.6513,-3.6561,-3.6595,-3.6638,-3.6667,-3.6703,-3.671,-3.671,-3.6694,-3.6675,-3.6685,-3.6753,-3.671,-3.6711,-3.6712,-3.6712,-3.6712,-3.6112,-3.6124,-3.6173,-3.6206,-3.624,-3.6273,-3.629,-3.6331,-3.6361,-3.6405,-3.6437,-3.6468,-3.6514,-3.6576,-3.6604,-3.6629,-3.6645,-3.6644,-3.6643,-3.6642,-3.6636,-3.6673,-3.6637,-3.6637,-3.6637,-3.6638,-3.6638,0,-3.6053,-3.6088,-3.6118,-3.6169,-3.6195,-3.6229,-3.6272,-3.6291,-3.6319,-3.636,-3.639,-3.6429,-3.6464,-3.6515,-3.6553,-3.6564,-3.6581,-3.6572,-3.6571,-3.6577,-3.662,-3.6617,-3.6558,-3.6558,-3.6558,-3.6558,-3.6558,-3.6558,-3.6025,-3.6047,-3.6079,-3.6118,-3.6154,-3.6186,-3.6207,-3.6239,-3.6272,-3.6314,-3.6344,-3.6377,-3.6422,-3.6465,-3.6499,-3.6513,-3.6524,-3.651,-3.6528,-3.6567,-3.6574,-3.6581,-3.6578,-3.6512,-3.6512,-3.6484,-3.6483,-3.6483]}]]